www.pogodaiklimat.ru

Погода и климат >> Архив погоды >> Россия >> Ингушетия >> Назрань


ПОГОДА в Назрани

АРХИВ ПОГОДЫ в Назрани

Время (UTC), дата Ветер
(напр.,м/с)
 
Видим.   Явления Облачность Т
(С)
Тd
(С)
f
(%)
Тe
(С)
Тes
(С)
Комфортность P
(гПа)
Po
(гПа)
Тmin
(С)
Tmax
(С)
R
(мм)
R24
(мм)
S
(см)
03 19.04 СВ 2 10 км {снег} 10/0
[As op]
-0.3 -2.7 84 -4 -4 очень
холодно
1021.4 940.6 -0.3 1
06 19.04 ЮВ 2 10 км 10/0
[As op]
+0.8 -2.1 81 -3 -1 очень
холодно
1021.4 840.9
09 19.04 В 2 20 км 10/0
[As op]
+1.4 -3.4 70 -2 +2 очень
холодно
1021.5 941.1
12 19.04 В 3 20 км 10/0
[As op]
+3.0 -5.6 53 -0 +1 очень
холодно
1021.6 941.6
15 19.04 ЮВ 2 20 км 10/0
[As op]
+2.0 -1.7 76 -1 -1 очень
холодно
1021.1 940.9 +3.0
18 19.04 ЮВ 2 10 км 10/0
[As op]
+1.0 -2.2 79 -2 -2 очень
холодно
1022.8 942.1
21 19.04 Ю 2 10 км 10/0
[As op]
+0.3 -2.7 80 -3 -3 очень
холодно
1021.0 941.0
00 20.04 СВ 2 10 км 10/0
[As op]
-0.6 -3.0 84 -4 -4 очень
холодно
1021.6 940.6
03 20.04 Ю 2 10 км 10/0
[As op]
-1.0 -3.2 85 -5 -5 очень
холодно
1021.5 940.4 -1.0
06 20.04 Ю 2 20 км 10/0
[As op]
+1.0 -2.5 77 -2 -0 очень
холодно
1021.9 941.3
09 20.04 Ю 2 20 км 10/0
[As op]
+3.4 -1.6 70 +1 +4 очень
холодно
1021.6 941.8
12 20.04 Ю 2 20 км 10/0
[As op]
+5.0 -1.2 64 +3 +5 очень
холодно
1021.3 941.9
15 20.04 ЮВ 2 10 км 10/0
[As op]
+3.0 -2.1 69 0 0 очень
холодно
1022.6 942.6 +5.0
18 20.04 Ю 2 10 км 10/0
[As op]
+1.0 -2.9 75 -2 -2 очень
холодно
1023.4 942.7
21 20.04 ЮВ 2 10 км 10/0
[As op]
+0.5 -2.8 79 -3 -3 очень
холодно
1023.0 942.2
00 21.04 ЮВ 2 10 км 10/0
[As op]
-0.9 -3.7 81 -5 -5 очень
холодно
1023.2 942.0
03 21.04 Ю 2 20 км 3/0
[Ci fib]
-1.0 -4.9 75 -5 -4 очень
холодно
1022.5 941.3 -2.0
06 21.04 Ю 2 20 км ясно +2.0 -3.0 69 -1 +9 очень
холодно
1021.6 941.3
09 21.04 В 2 20 км 8/0
[As op]
+4.3 -0.8 69 +2 +8 очень
холодно
1020.7 941.1
12 21.04 Ю 2 20 км 10/0
[As op]
+5.9 -1.1 61 +4 +6 очень
холодно
1020.2 941.1
15 21.04 ЮВ 2 10 км 10/0
[As op]
+5.0 +2.3 83 +2 +3 очень
холодно
1020.8 941.4 +6.0
18 21.04 СВ 2 10 км 10/0
[As op]
+2.0 -1.6 77 -1 -1 очень
холодно
1022.5 942.2
21 21.04 ЮВ 2 10 км {ливн. осадки} 10/0
[As op]
+0.2 -2.2 84 -3 -3 очень
холодно
941.5
00 22.04 ЮВ 2 10 км 10/0
[As op]
0.0 -2.1 86 -4 -4 очень
холодно
1021.9 941.0
03 22.04 ЮВ 2 10 км 10/0
[As op]
-1.0 -2.8 88 -5 -5 очень
холодно
1022.3 941.1 -1.0 0.0
06 22.04 Ю 2 10 км 10/0
[As op]
+0.3 -3.0 78 -3 -1 очень
холодно
1023.1 942.2
09 22.04 Ю 2 20 км 10/0
[As op]
+3.0 -2.1 69 0 +4 очень
холодно
1022.7 942.7
12 22.04 Ю 2 20 км 10/0
[As op]
+4.2 0.0 74 +2 +4 очень
холодно
1022.5 942.8
15 22.04 Ю 2 10 км слаб. морось 10/10 600 м
[Cu med, cong]
+3.5 +1.7 88 +1 +1 очень
холодно
1023.6 943.6 +5.5 0.0
18 22.04 штиль 0 50 км ?/? +5.4 +1.9 78 +5 +5 прохладно 1024.1 944.8
21 22.04 штиль 0 10 км ясно +4.1 +1.0 80 +3 +3 холодно 1024.8 945.0
00 23.04 штиль 0 10 км ясно +3.0 +0.3 82 +2 +2 прохладно 1025.0 945.0
03 23.04 В 1 2000 м дымка 6/0
[Ci fib]
+2.2 +1.2 93 0 +1 очень
холодно
1026.4 946.0 +0.3 0.0
06 23.04 СЗ 1 10 км 9/9 600 м
[Cb calv Ac trans]
+6.4 +3.6 82 +5 +6 холодно 1026.3 947.1
09 23.04 З 1 10 км 9/0
[Ac As]
+10.4 +0.7 51 +10 +18 по сезону 1025.7 947.5
12 23.04 В 2 20 км 4/4 1020 м
[Cu med, cong]
+12.6 -2.1 36 +12 +18 по сезону 1025.2 947.5
15 23.04 В 2 20 км 3/3 1020 м
[Cu hum]
+11.4 -1.1 42 +11 +11 по сезону 1024.9 947.0 +13.5
18 23.04 В 2 10 км 3/0
[Ac trans]
+7.2 +1.3 66 +5 +5 прохладно 1018.6 949.4
21 23.04 штиль 0 10 км 3/0
[Ac trans]
+5.3 +0.1 69 +5 +5 прохладно 1028.9 949.5
00 24.04 штиль 0 10 км 3/0
[Ac trans]
+4.1 +0.7 78 +3 +3 прохладно 1029.0 949.3
03 24.04 штиль 0 20 км ясно +6.0 -2.9 53 +6 +6 прохладно 1029.0 949.4 +3.0 0.0
06 24.04 СЗ 2 10 км ясно +11.4 -1.1 42 +11 +21 опасность
простуды
1027.1 949.0
09 24.04 СЗ 2 20 км 1/1 1020 м
[Cu hum]
+13.6 -0.7 37 +13 +29 опасность
простуды
1028.2 950.0
12 24.04 СЗ 3 20 км 9/9 600 м
[Cb calv Ac trans]
+15.0 -3.6 27 +15 +15 по сезону 1024.9 947.9
15 24.04 СВ 2 10 км 9/9 300 м
[Cb calv Ac trans]
+13.2 -1.8 35 +13 +13 по сезону 1025.4 947.9 +16.5
18 24.04 ЮЗ 2 10 км 10/0
[Ac As]
+11.2 -2.2 39 +11 +11 по сезону 1027.0 948.9
21 24.04 Ю 2 10 км 3/0
[Ac trans]
+8.3 0.0 56 +7 +7 по сезону 1027.6 948.7
00 25.04 штиль 0 10 км 10/0
[Ac As]
+6.2 +1.2 70 +6 +6 по сезону 1027.8 948.4
03 25.04 Ю 3 10 км 4/0
[Ac trans]
+9.2 +0.3 54 +7 +8 по сезону 1027.7 949.1 +6.0
06 25.04 ЮЗ 3 20 км 10/0
[Ac As]
+14.8 +0.2 37 +14 +17 тепло 1026.4 949.3
09 25.04 С 1 20 км 10/10 600 м
[Cb calv Ac trans]
+15.0 +2.5 43 +16 +16 тепло 1025.9 948.9
12 25.04 С 1 20 км 10/10 600 м
[Cb calv Ac trans]
+15.8 +1.2 37 +17 +17 тепло 1025.3 948.5
15 25.04 Ю 1 20 км 9/0
[Ac As]
+14.4 -0.5 36 +15 +15 тепло 1025.4 948.3 +17.0
18 25.04 ЮВ 2 10 км 10/0
[As op]
+10.0 -0.2 49 +9 +9 по сезону 1026.9 948.4
21 25.04 ЮВ 2 10 км 10/0
[As op]
+6.0 +0.9 70 +4 +4 прохладно 1026.4 946.9
00 26.04 Ю 2 10 км 10/0
[As op]
+5.1 +0.9 74 +3 +3 прохладно 1025.8 946.0

 

Местоположение метеостанции Назрань (Ингушетия, Россия): широта 43.15 долгота 44.85 высота над уровнем моря 665 м.

В архиве по умолчанию представлена погода в Назрани за последнюю неделю. Архивные данные за месяц целиком и за предыдущие месяцы, начиная с января 2011 года, Вы можете получить, выбрав интересующий диапазон дат из раскрывающегося списка и нажав кнопку "Ввод!".


*Определитесь, кто Вы:
робот инопланетянин человек

Внимание! Время в таблицах - всемирное. Для получения местного времени необходимо прибавить поправку, которая равна 3 ч.

Смотрите также архив погоды в соседних городах и на ближайших метеорологических станциях:

Погода в Владикавказе (Северная Осетия, Россия) (19 км)
Погода в Алагире (Северная Осетия, Россия) (50 км)
Погода в Моздоке (Северная Осетия, Россия) (66 км)
Погода в Наурской (Чечня, Россия) (67 км)
Погода в Грозном (Чечня, Россия) (71 км)
Погода в Шатое (Чечня, Россия) (74 км)
Погода на Рокском Перевале (Северная Осетия, Россия) (85 км)
Погода в Наре (Северная Осетия, Россия) (87 км)
Погода в Пасанаури (Грузия) (90 км)
Погода в Прохладный (Кабардино-Балкария, Россия) (93 км)

Пояснения к столбцам:

Ветер - указаны скорость ветра в м/с - средняя за 10 мин, порывы в срок и между сроками (в фигурных скобках) и направление, откуда дует ветер: С - северный, СВ - северо-восточный, В - восточный, ЮВ - юго-восточный, Ю - южный, ЮЗ - юго-западный, З - западный, СЗ - северо-западный.
Видимость - горизонтальная дальность видимости в метрах или километрах. При видимости от 1 до 10 км при отсутствии осадков обычно наблюдается дымка, при ухудшении видимости до 1 км и менее - туман. В сухую погоду видимость может ухудшаться дымом, пылью или мглою.
Явления - указаны атмосферные явления, наблюдавшиеся в срок или в последний час перед сроком; фигурными скобками обозначены явления, наблюдавшиеся между сроками (за 1-3 часа до срока); квадратными скобками обозначены град или гололедные отложения с указанием их диаметра в мм.
Облачность - указаны через наклонную черту общая и нижняя облачность в баллах и высота нижней границы облаков в метрах; квадратными скобками обозначены формы облаков: Ci - перистые, Cs - перисто-слоистые, Cc - перисто-кучевые, Ac - высококучевые, As - высокослоистые, Sc - слоисто-кучевые, Ns - слоисто-дождевые, Cu - кучевые, Cb - кучево-дождевые. Подробнее классификацию облаков см. в Атласе облаков (PDF).
T - Температура воздуха - температура, измеренная на высоте 2 м над землей.
Td - Температура точки росы - температура, при понижении до которой содержащийся в воздухе водяной пар достигнет насыщения.
f - Относительная влажность воздуха - влажноcть воздуха, измеренная на высоте 2 м над землей.
Te - Эффективная температура - температура, которую ощущает одетый по сезону человек в тени. Характеристика душности погоды. При расчете учитывается влияние влажности воздуха и скорости ветра на теплоощущения человека.
Tes - Эффективная температура на солнце - температура, которую ощущает человек, с поправкой на солнечный нагрев. Характеристика знойности погоды. Зависит от высоты солнца над горизонтом, облачности и скорости ветра. Ночью, в пасмурную погоду, а также при ветре 12 м/с и более поправка равна нулю.
P - Атмосферное давление - приведенное к уровню моря атмосферное давление.
Po - Атмосферное давление - измеренное на уровне метеостанции атмосферное давление.
Tmin - Минимальная температура - минимум температуры воздуха на высоте 2 м над землей.
Tmax - Максимальная температура - максимум температуры воздуха на высоте 2 м над землей.
R - Количество осадков - Количество выпавших осадков за период времени, мм. При наведении курсора мыши на число - период времени, за который выпало указанное количество осадков.
R24 - Количество осадков - Количество выпавших осадков за 24 часа, мм.
S - Снежный покров - Высота снежного покрова, см. При наведении курсора мыши на число - состояние снежного покрова и степень покрытия местности в баллах.